Temp
63 63 63 63 63 63 63 63 63 63 63 63 63 63 63 64 63 80 90 93 88 81 86 93 89 88 87 83 87 85 79 81 80 80 80 86 84 89 89 84 85 86 86 89 86
63 63 63 63 63 63 63 63 62 62 62 63 63 63 64 64 82 90 90 81 81 82 95 89 85 86 86 83 85 82 82 80 86 87 85 87 87 85 83 83 81 83 87 88 86
63 63 63 62 63 63 62 62 62 62 62 62 63 63 64 69 87 98 82 82 82 86 98 94 91 87 81 87 86 86 80 83 85 86 86 86 86 89 85 80 85 81 83 85 86
62 62 62 62 62 62 62 61 61 61 61 62 63 63 64 82 84 96 82 81 83 99 96 91 89 85 89 86 88 83 84 86 85 86 85 84 89 85 86 84 89 88 87 86 85
62 62 61 62 61 61 61 61 61 61 61 62 63 64 76 88 93 94 82 84 94 97 94 92 91 90 87 89 89 86 86 86 87 86 87 87 85 83 81 85 90 87 86 86 87
61 61 61 61 61 61 61 60 60 61 61 62 64 63 85 86 98 97 94 92 97 97 94 96 92 93 90 89 87 89 88 88 89 87 88 84 83 85 80 86 85 84 85 86 85
61 61 61 61 61 60 60 59 59 60 61 63 64 76 87 90 97 97 97 97 98 97 93 95 96 92 94 90 92 88 84 89 88 88 86 88 79 77 81 84 82 83 83 84 80
60 61 61 60 60 59 59 58 58 60 62 63 65 83 90 95 101 95 98 95 98 98 96 96 97 94 92 95 94 86 88 82 86 87 86 88 73 77 83 81 72 75 75 79 81
60 60 60 60 59 58 58 58 59 61 64 66 79 86 91 86 93 97 100 95 95 95 96 96 95 92 94 90 91 85 80 81 83 88 86 86 76 78 83 81 74 72 74 77 81
60 59 59 59 59 58 57 61 63 66 72 81 85 84 92 93 93 95 99 98 94 93 91 92 94 90 93 91 77 78 79 84 81 86 86 82 78 79 82 82 78 76 78 80 84
59 59 59 58 58 57 65 81 81 81 85 91 93 90 94 95 99 94 97 96 96 92 89 91 87 86 89 90 88 86 84 83 86 87 83 84 81 79 81 83 82 82 84 86 87
59 59 58 58 57 57 69 90 93 94 89 92 91 91 96 100 90 92 98 91 91 87 90 89 86 92 92 90 90 87 84 85 86 85 83 79 81 82 81 83 84 85 85 86 88
59 58 58 57 57 62 87 94 99 97 91 89 94 94 95 97 95 93 96 94 90 88 89 85 90 95 91 90 88 89 86 86 84 86 87 86 73 73 78 84 86 89 89 90 88
59 58 57 56 62 92 92 96 99 96 87 86 91 95 96 98 91 100 101 97 91 87 89 88 93 89 89 88 91 85 90 87 85 85 81 89 75 79 79 79 83 87 89 90 90
58 57 56 52 86 93 96 99 98 95 71 89 92 102 99 94 95 92 101 96 89 88 87 86 88 88 87 89 91 86 89 86 85 85 84 83 82 81 83 78 82 87 90 92 92
57 56 55 64 79 95 98 97 95 81 68 85 92 90 91 94 93 93 93 97 96 89 91 90 97 90 91 93 92 91 88 86 87 86 77 81 82 82 84 84 86 89 92 93 95
56 54 57 82 97 96 97 95 82 79 87 84 87 91 92 90 90 91 88 87 86 80 82 89 90 93 92 89 91 90 89 79 74 76 74 84 81 83 88 90 93 92 93 94 97
54 53 62 84 95 92 94 89 75 82 84 90 89 90 86 91 90 90 89 87 92 89 85 82 78 90 92 90 88 89 90 80 65 74 76 83 77 82 90 94 95 97 98 98 97
53 84 90 96 92 91 92 83 83 85 89 87 88 85 86 89 88 89 89 89 92 93 83 84 81 92 92 93 92 87 85 92 83 84 78 81 83 90 93 93 95 95 96 95 95
79 95 94 93 93 94 90 72 87 91 90 90 84 87 83 87 85 87 87 91 89 93 96 88 80 91 92 92 92 90 91 83 85 69 67 77 78 79 85 88 93 94 92 94 96
85 93 95 99 95 93 85 87 88 93 91 88 87 86 86 85 88 86 86 89 91 90 94 93 88 85 91 86 85 87 86 87 87 82 73 71 76 93 88 92 92 94 93 93 95
88 88 97 98 89 93 89 87 67 91 93 92 91 90 88 87 86 86 86 89 92 94 87 92 90 81 83 88 90 89 86 88 79 75 83 80 76 94 94 94 93 92 93 91 91
84 89 101 97 84 87 88 88 88 89 90 90 90 92 92 88 83 87 87 90 91 92 89 92 86 77 81 86 89 85 86 89 88 89 77 76 79 92 92 91 91 92 93 89 89
83 83 91 94 89 85 84 85 85 88 88 88 90 92 90 87 90 85 87 89 90 92 72 84 89 82 76 79 86 80 83 86 88 81 82 81 83 86 89 90 89 90 92 91 90
82 79 76 83 84 83 83 81 83 84 88 89 86 88 88 84 86 85 88 89 90 75 87 93 83 83 84 84 84 83 83 84 82 84 79 84 82 88 92 90 88 90 91 90 89
75 74 83 80 78 79 70 81 80 82 82 84 83 84 86 85 86 84 88 88 87 90 90 93 82 82 79 84 83 81 84 85 85 85 84 85 84 95 92 88 86 87 89 89 88
74 78 73 66 78 79 82 79 77 78 83 83 81 82 84 83 84 89 92 94 94 90 89 88 85 79 74 82 81 74 82 84 85 88 86 80 88 90 86 85 85 87 88 86 87
MSLP
1014.52 1014.20 1014.00 1013.75 1013.42 1013.25 1013.18 1013.20 1013.02 1012.87 1012.48 1012.40 1012.19 1012.27 1011.92 1011.77 1011.25 1010.57 1008.04 1006.65 1007.46 1008.32 1008.31 1008.50 1008.87 1008.85 1009.07 1008.51 1008.13 1007.86 1005.75 1003.65 1003.59 1003.51 1004.36 1005.04 1005.22 1005.90 1006.66 1007.38 1008.01 1008.71 1008.80 1009.50 1012.01
1014.40 1014.07 1013.84 1013.58 1013.25 1013.01 1013.07 1012.99 1012.93 1012.69 1012.49 1012.16 1012.03 1012.09 1011.67 1011.64 1010.12 1008.04 1006.64 1007.01 1007.65 1008.21 1007.78 1007.98 1008.26 1008.64 1007.87 1007.74 1007.46 1006.77 1004.87 1004.05 1004.23 1004.11 1004.17 1004.62 1004.78 1005.85 1006.38 1006.99 1007.89 1008.54 1009.24 1010.29 1011.78
1014.30 1013.89 1013.64 1013.37 1013.08 1012.87 1012.87 1012.82 1012.75 1012.64 1012.36 1012.12 1011.87 1011.83 1011.49 1011.29 1008.80 1005.79 1006.78 1007.25 1007.73 1007.93 1007.50 1007.66 1007.95 1008.07 1007.31 1006.69 1006.12 1005.57 1004.83 1004.80 1004.60 1004.85 1004.87 1004.66 1004.85 1005.53 1005.72 1006.53 1006.87 1008.15 1009.14 1010.49 1011.33
1014.22 1013.84 1013.51 1013.20 1012.92 1012.71 1012.65 1012.68 1012.65 1012.56 1012.33 1012.02 1011.73 1011.65 1011.32 1010.06 1007.20 1006.64 1007.25 1007.61 1007.90 1007.21 1007.34 1007.28 1007.42 1006.57 1004.96 1004.86 1005.23 1004.64 1005.04 1004.85 1004.79 1004.96 1004.96 1004.78 1004.77 1005.34 1005.83 1006.50 1006.98 1008.02 1009.21 1010.10 1011.02
1014.10 1013.69 1013.38 1013.02 1012.73 1012.56 1012.57 1012.48 1012.49 1012.42 1012.17 1011.88 1011.58 1011.46 1010.85 1008.38 1006.36 1007.11 1007.65 1008.01 1007.75 1007.31 1006.81 1006.34 1005.64 1005.22 1004.50 1004.38 1004.35 1004.05 1004.32 1004.59 1004.70 1004.86 1004.81 1004.98 1005.13 1005.87 1006.92 1007.36 1007.59 1008.69 1009.50 1010.28 1011.03
1013.98 1013.53 1013.18 1012.87 1012.53 1012.42 1012.33 1012.37 1012.32 1012.25 1012.04 1011.75 1011.48 1011.41 1009.60 1007.07 1006.56 1006.83 1007.18 1007.60 1007.02 1006.85 1006.51 1006.08 1005.63 1005.41 1004.50 1004.17 1003.94 1004.02 1003.86 1003.80 1003.99 1004.56 1004.66 1004.89 1005.65 1006.20 1007.73 1008.00 1008.55 1009.26 1009.89 1010.48 1011.10
1013.77 1013.36 1012.99 1012.67 1012.37 1012.20 1012.13 1012.21 1012.21 1012.11 1011.85 1011.56 1011.36 1010.79 1008.51 1006.83 1006.74 1006.73 1006.99 1006.87 1006.94 1006.59 1006.16 1006.27 1005.94 1005.21 1004.38 1003.33 1003.69 1003.71 1003.19 1002.87 1003.41 1004.00 1004.27 1004.83 1005.69 1006.84 1008.13 1008.63 1009.13 1009.69 1010.39 1010.95 1012.12
1013.67 1013.13 1012.84 1012.52 1012.23 1011.97 1011.91 1012.04 1012.01 1011.89 1011.54 1011.36 1011.25 1010.03 1006.70 1006.91 1006.52 1006.86 1006.77 1006.92 1007.07 1006.89 1006.45 1006.32 1005.87 1004.90 1003.95 1003.40 1002.15 1002.49 1002.16 1001.73 1002.93 1003.49 1004.13 1004.27 1005.36 1007.36 1008.35 1009.01 1010.21 1010.87 1011.35 1011.64 1011.92
1013.49 1013.05 1012.67 1012.37 1012.08 1011.84 1011.67 1011.65 1011.59 1011.56 1011.36 1011.21 1010.53 1008.80 1006.15 1007.24 1006.36 1006.42 1006.31 1006.05 1006.51 1006.71 1006.49 1006.41 1005.64 1004.17 1002.97 1001.89 1000.17 1001.44 1001.01 1001.43 1002.08 1003.02 1003.52 1004.00 1005.31 1007.30 1008.18 1008.86 1010.14 1011.06 1011.49 1011.54 1011.69
1013.35 1012.85 1012.48 1012.22 1011.94 1011.73 1011.47 1011.21 1011.19 1011.21 1011.10 1010.38 1009.36 1007.99 1005.91 1005.19 1006.02 1006.30 1006.35 1006.06 1005.73 1005.85 1005.65 1005.18 1004.15 1002.96 1001.77 1000.95 1000.57 1000.90 1000.87 1001.06 1001.48 1002.40 1003.06 1003.83 1005.15 1006.83 1007.77 1008.37 1009.41 1010.50 1010.87 1010.78 1010.67
1013.18 1012.67 1012.30 1012.03 1011.84 1011.66 1011.33 1010.45 1010.50 1009.46 1008.64 1006.50 1005.80 1005.15 1004.79 1005.60 1005.75 1005.76 1005.94 1005.52 1005.19 1004.83 1003.74 1004.02 1003.12 1001.40 1001.20 1001.39 1001.58 1001.17 1000.87 1000.61 1000.99 1002.16 1002.74 1002.91 1004.27 1005.93 1007.00 1007.54 1008.19 1008.89 1009.17 1009.40 1009.67
1012.95 1012.47 1012.11 1011.83 1011.77 1011.66 1011.07 1007.92 1006.35 1006.13 1005.17 1005.45 1005.41 1005.05 1004.73 1004.50 1004.64 1005.35 1005.65 1004.86 1004.24 1003.35 1003.33 1002.99 1001.52 1001.28 1001.64 1001.55 1000.94 1000.77 1000.46 999.85 1000.90 1001.93 1002.43 1003.10 1003.43 1005.18 1006.43 1006.89 1007.18 1007.55 1008.18 1008.50 1009.07
1012.70 1012.19 1011.87 1011.65 1011.53 1011.27 1008.63 1006.45 1006.11 1005.72 1004.06 1004.45 1004.22 1003.77 1003.92 1004.32 1003.28 1004.14 1004.85 1004.11 1003.49 1002.90 1002.53 1002.13 1001.13 1001.05 1001.07 1000.52 1000.26 999.59 999.83 999.93 1000.23 1000.76 1001.19 1001.39 1003.49 1004.92 1005.95 1006.31 1006.61 1006.84 1007.23 1007.73 1008.11
1012.48 1011.90 1011.64 1011.42 1011.49 1008.20 1006.76 1006.09 1005.97 1005.74 1003.18 1003.58 1003.27 1003.11 1003.61 1003.32 1003.06 1003.64 1003.82 1003.47 1003.03 1002.45 1002.15 1001.83 1001.32 1001.19 1000.63 1000.18 1000.03 999.35 1000.09 1000.12 1000.03 999.84 999.24 1000.37 1000.72 1002.89 1004.43 1005.22 1005.72 1005.87 1006.08 1006.58 1007.02
1012.18 1011.55 1011.33 1011.41 1008.88 1006.85 1005.99 1005.96 1005.70 1005.23 1002.20 1002.62 1002.53 1003.04 1002.72 1002.54 1002.51 1003.41 1003.75 1003.38 1002.34 1002.17 1002.48 1000.89 1000.93 1000.79 1000.44 1000.04 1000.09 999.91 1000.18 1000.01 999.90 999.30 999.28 999.61 999.39 1001.61 1002.84 1003.63 1004.17 1004.49 1004.70 1005.15 1005.70
1011.54 1011.08 1010.89 1010.53 1008.97 1006.29 1006.09 1005.86 1005.47 1003.52 1001.71 1001.71 1001.90 1002.07 1002.04 1001.86 1001.97 1002.99 1003.36 1003.55 1002.66 1002.19 1001.92 1001.28 1001.08 1001.39 1000.45 1000.19 1000.09 1000.16 999.91 999.64 999.34 998.84 998.04 999.33 999.22 999.61 1000.54 1001.55 1002.28 1003.06 1003.46 1003.98 1004.58
1010.63 1010.18 1010.26 1008.05 1005.92 1006.31 1006.08 1005.09 1002.98 1000.96 1001.70 1001.10 1000.72 1001.01 1000.67 1000.87 1001.34 1001.84 1002.17 1002.23 1001.44 1001.10 1000.43 1000.15 1000.19 1000.57 1000.74 999.98 999.88 999.80 998.41 997.55 997.61 997.51 997.74 999.13 998.89 999.35 1000.30 1000.94 1000.93 1001.62 1002.45 1003.16 1003.68
1009.95 1009.54 1008.92 1007.48 1006.65 1006.42 1005.51 1003.50 1001.14 1000.96 1000.26 1000.58 1000.39 1000.42 1000.08 1000.12 1000.32 1000.82 1000.89 1000.64 1000.78 1000.67 1000.00 998.99 999.42 999.73 1000.06 999.66 999.26 998.76 998.29 997.46 997.48 997.02 997.56 999.21 998.45 999.70 1000.42 1000.73 1001.08 1001.24 1001.60 1002.21 1002.87
1009.12 1007.96 1007.12 1006.14 1006.30 1006.32 1004.27 1001.45 1000.30 1000.23 1000.30 999.99 1000.02 999.62 999.57 1000.02 1000.16 1000.17 1000.13 999.54 999.77 1000.22 999.61 998.97 998.84 999.88 1000.06 999.88 999.77 998.98 998.44 998.67 997.90 998.36 997.66 998.05 999.26 999.56 1000.12 1000.50 1000.88 1001.26 1001.76 1002.29 1002.89
1008.58 1006.27 1005.74 1006.01 1006.05 1005.10 1002.91 1000.90 1000.42 1000.58 1000.42 1000.08 998.94 999.16 998.70 999.21 999.82 999.59 999.47 999.76 999.88 1000.14 1000.08 999.61 998.89 999.29 999.81 1000.04 999.94 999.41 999.41 998.42 997.89 997.69 997.53 997.69 998.38 997.24 999.52 1000.33 1000.73 1001.21 1002.07 1002.54 1003.10
1008.00 1005.03 1005.38 1005.31 1005.39 1003.52 1001.43 1000.70 1000.76 1000.60 1000.62 999.89 999.18 998.94 998.87 999.09 999.28 999.10 999.13 1000.03 1000.10 1000.38 1000.54 999.78 999.44 999.06 999.35 999.52 999.64 999.36 998.90 998.83 998.47 998.72 997.86 997.63 997.70 998.44 999.67 1000.20 1000.79 1001.63 1002.48 1003.05 1003.51
1007.40 1004.57 1004.98 1004.88 1003.63 1002.66 1001.27 1001.44 1001.62 1000.62 1000.60 1000.02 999.81 999.26 999.02 999.16 999.01 998.99 999.06 999.67 1000.55 1000.37 1000.20 1000.38 999.69 999.04 999.60 1000.56 1000.75 1000.14 999.52 999.05 998.08 998.31 998.63 998.27 998.64 999.46 999.98 1000.55 1001.38 1002.01 1002.75 1003.86 1004.42
1007.85 1005.58 1004.61 1004.31 1002.63 1001.98 1001.96 1001.52 1001.50 1000.93 1000.63 1000.16 999.58 999.60 999.61 999.22 999.20 999.41 999.75 1000.75 1000.88 1000.58 1000.43 1000.41 999.92 999.44 999.23 1000.19 1000.53 999.95 1000.05 999.56 999.04 998.62 998.47 998.35 998.54 1000.03 1000.77 1001.25 1001.90 1002.23 1003.12 1004.21 1004.82
1008.70 1005.63 1004.44 1004.28 1004.27 1003.08 1002.27 1001.68 1001.41 1001.78 1001.32 1001.07 1000.26 1000.04 999.79 999.60 999.74 999.52 999.78 1000.76 1001.14 1001.01 1001.45 1001.06 999.97 999.96 999.72 999.87 999.90 1000.03 1000.09 1000.01 999.32 998.49 998.11 998.58 998.76 999.94 1000.70 1001.30 1002.24 1002.77 1003.38 1004.17 1004.91
1009.44 1007.73 1007.82 1004.88 1004.43 1004.18 1003.72 1003.09 1002.10 1001.69 1001.83 1001.65 1000.98 1000.44 1000.05 999.79 999.80 999.74 999.97 1000.55 1001.10 1001.72 1001.46 1000.79 999.95 1000.60 1000.63 1000.91 1000.86 1000.51 1000.21 1000.01 999.81 999.49 999.29 998.62 999.20 999.49 1000.23 1001.51 1002.62 1003.15 1003.67 1004.39 1004.95
1010.73 1009.91 1008.51 1006.99 1006.09 1005.16 1004.30 1003.43 1003.27 1002.88 1002.76 1001.83 1001.71 1001.66 1001.26 1000.66 1000.43 999.97 999.94 1000.06 1000.11 1001.08 1000.85 1000.61 1000.50 1001.00 1000.88 1000.85 1001.00 1000.63 1000.27 1000.03 999.86 999.72 999.62 999.73 999.37 999.95 1001.28 1002.55 1003.01 1003.32 1003.73 1004.27 1005.15
1013.05 1011.99 1010.72 1008.02 1006.53 1005.78 1004.69 1004.78 1004.54 1004.63 1003.78 1003.60 1003.52 1002.75 1002.06 1002.52 1002.85 1001.94 1001.30 1000.60 1000.02 1000.18 1000.21 1000.34 1000.37 1000.98 1000.52 1000.60 1000.84 1000.32 999.68 999.43 999.32 999.34 999.59 999.28 999.41 1000.61 1001.72 1002.57 1003.12 1003.45 1003.95 1004.80 1005.38
Wind_Speed
14 14 13 12 11 11 10 9 9 9 10 9 10 7 9 8 11 8 10 4 8 20 13 14 9 7 8 5 6 3 7 4 6 2 7 10 8 7 5 11 6 9 2 16 25
15 14 13 12 11 11 9 9 8 8 8 10 9 7 10 6 10 12 6 16 24 16 18 13 9 10 5 3 4 6 5 5 6 6 5 8 8 11 9 12 8 8 8 23 28
16 15 13 12 11 10 9 8 8 7 8 9 9 7 10 10 8 4 15 19 21 16 12 9 8 9 5 5 3 2 5 4 3 5 5 0 5 8 6 9 11 13 20 24 27
15 15 13 12 11 10 8 7 6 6 7 8 9 8 9 7 1 10 12 21 18 14 12 7 7 7 5 7 2 2 2 2 2 0 1 1 2 2 2 7 4 14 21 26 25
16 14 12 11 10 9 8 6 5 6 7 8 9 8 8 8 3 12 14 19 16 12 9 5 7 7 8 7 2 5 3 3 1 2 3 2 5 6 4 4 7 16 21 24 23
16 14 12 11 10 9 7 6 5 6 7 8 8 8 7 7 6 9 15 20 10 11 6 6 5 9 8 9 6 10 8 8 5 7 3 5 9 3 7 6 13 17 20 20 21
16 15 12 11 10 9 8 6 5 6 6 8 6 6 7 5 3 6 14 11 8 4 3 2 7 9 10 9 6 6 5 3 5 8 4 11 8 8 8 9 12 15 15 17 19
17 15 13 11 10 9 8 7 7 6 7 7 6 7 2 3 6 9 10 9 9 5 2 2 7 10 7 10 6 5 7 5 7 6 5 9 7 7 8 11 11 13 13 15 18
16 16 13 11 10 10 10 9 7 7 5 6 8 7 7 5 8 10 8 6 9 7 7 7 9 6 9 11 5 3 9 8 5 4 4 7 9 10 10 12 14 13 13 14 17
18 16 14 11 10 10 11 4 8 11 6 6 4 7 5 5 9 10 6 7 5 7 8 7 5 9 9 7 11 17 15 13 7 6 6 5 8 12 12 12 15 15 15 16 16
17 16 13 12 8 7 7 6 8 7 8 6 8 3 8 9 10 8 8 8 6 8 10 3 10 9 11 11 11 15 13 11 7 6 5 4 10 14 15 13 15 15 17 18 18
17 15 15 11 7 5 7 6 6 6 3 5 4 4 2 6 7 9 8 8 7 12 3 10 13 9 7 6 12 9 9 6 8 4 7 2 5 11 14 13 14 16 16 17 18
18 15 14 10 5 5 7 6 3 4 6 8 5 7 7 9 8 14 14 6 9 11 11 10 14 12 13 11 10 8 6 10 9 1 4 6 9 9 11 11 12 14 16 17 20
18 15 12 7 4 4 5 2 4 5 7 10 9 7 9 7 6 8 15 9 7 11 8 9 7 9 10 11 11 14 7 5 7 9 4 7 7 10 13 15 14 15 16 19 21
18 16 9 9 6 5 6 5 3 6 2 6 8 6 6 9 12 10 13 8 10 7 7 4 5 8 13 12 6 6 4 5 5 6 6 5 4 9 11 13 15 18 19 20 22
20 16 6 6 5 4 3 2 6 9 6 8 6 10 12 10 6 9 10 10 5 8 11 16 15 8 12 7 7 1 4 3 3 5 4 5 8 11 5 4 15 18 19 19 19
24 16 8 3 2 2 3 5 8 0 4 8 6 8 11 12 9 13 14 15 9 10 11 9 9 5 7 10 5 9 14 5 6 6 10 4 6 10 8 8 5 14 16 17 17
26 8 9 5 1 4 6 7 2 4 2 3 4 7 8 9 7 11 10 12 12 10 8 6 13 5 2 5 9 5 11 6 4 1 11 2 3 8 5 6 8 8 7 9 11
25 5 4 2 4 5 8 9 4 3 2 2 6 9 9 7 5 10 13 8 2 11 7 4 6 6 4 2 6 5 8 10 6 3 8 7 7 10 9 12 11 11 10 11 7
6 3 4 4 4 7 7 2 2 2 3 5 5 4 8 10 9 8 9 3 5 7 5 3 5 4 7 4 5 7 5 7 7 4 6 9 4 11 14 13 10 11 11 11 9
6 5 5 4 5 7 7 2 1 1 3 4 1 4 3 5 9 7 2 7 2 7 8 4 5 4 7 5 9 4 9 3 5 5 7 8 6 12 13 11 11 11 10 10 10
5 5 3 4 7 2 5 1 1 2 1 2 4 2 1 3 4 4 4 4 1 8 6 2 8 7 10 4 2 2 6 11 8 8 2 10 9 8 6 8 7 8 9 10 9
6 3 2 4 7 8 4 3 3 3 1 3 5 3 1 1 3 1 3 4 3 6 4 5 4 8 7 12 7 2 3 3 6 7 5 10 8 6 9 6 5 8 10 9 9
5 3 4 1 2 8 3 5 4 3 3 3 3 5 7 6 3 2 5 4 3 1 5 3 5 7 8 10 6 3 2 4 10 6 3 9 5 10 9 9 7 6 7 9 8
3 5 4 1 4 5 4 2 6 5 2 2 4 4 8 7 7 6 4 8 7 6 4 7 9 1 1 3 5 8 9 8 10 9 10 10 3 5 2 1 3 3 8 9 8
6 6 2 4 4 6 4 3 6 1 3 4 3 4 5 10 5 5 5 6 8 9 8 7 6 5 9 6 9 12 13 13 13 13 14 14 16 8 3 1 4 7 12 11 10
5 1 6 3 3 5 1 2 1 4 3 1 5 7 6 5 8 8 8 8 4 9 11 9 8 7 11 5 10 13 18 18 16 12 10 12 9 7 4 4 7 9 11 10 10
Wind_Direction
339 335 331 324 317 316 318 321 323 315 315 318 318 337 311 314 291 224 250 72 160 168 170 140 170 180 195 240 247 279 246 89 65 51 116 154 166 140 109 142 164 178 191 135 150
339 336 332 324 317 315 318 317 319 311 313 309 313 327 300 317 261 251 90 113 140 166 163 164 169 170 202 215 222 252 286 41 27 44 60 158 174 151 163 161 154 161 119 138 156
342 336 334 326 319 316 316 317 315 316 310 309 309 313 296 294 261 60 100 139 150 181 158 170 165 207 241 226 130 11 360 14 11 349 341 227 192 168 187 189 170 166 148 158 163
337 339 335 328 321 314 313 314 313 314 307 304 303 306 300 247 233 33 110 148 162 175 169 178 181 228 255 37 105 223 27 289 326 69 256 271 108 205 227 30 12 154 160 162 169
342 336 337 329 320 314 314 312 307 304 299 292 292 300 265 223 39 84 127 149 171 166 192 223 284 334 7 348 54 294 15 267 235 320 325 207 168 94 70 15 149 147 161 167 172
342 338 333 331 322 317 314 306 298 298 290 285 290 294 251 230 46 123 141 165 170 192 204 265 343 335 285 316 320 327 310 287 240 233 186 139 126 223 71 97 126 152 162 168 170
342 339 337 332 323 319 312 305 293 293 278 272 271 268 248 46 29 137 151 172 167 195 212 291 306 296 328 308 352 310 308 105 196 201 150 129 122 79 108 130 134 149 162 167 155
343 341 339 336 329 321 313 300 283 269 260 249 244 246 262 60 117 154 151 157 171 177 169 292 312 286 278 304 216 301 222 33 110 171 147 238 103 131 143 132 137 156 167 176 175
344 342 340 339 334 324 315 299 258 231 220 197 220 251 137 144 182 150 195 184 173 185 229 273 276 303 283 313 294 113 352 21 90 201 160 246 119 151 162 144 147 166 171 188 179
344 342 340 339 334 326 319 300 153 162 194 220 274 235 182 140 130 157 169 168 195 175 196 238 243 282 235 313 349 328 337 343 12 121 226 182 122 159 172 163 158 168 181 186 186
338 340 336 333 333 324 279 179 191 173 207 322 132 7 118 103 155 178 176 190 195 230 255 166 282 278 352 343 330 312 309 317 33 116 245 197 151 174 177 176 163 174 179 180 188
334 337 332 328 321 300 265 256 24 358 183 208 225 253 167 192 149 162 199 227 230 249 157 243 251 23 349 304 302 311 302 356 106 115 202 166 140 165 182 188 179 174 185 182 185
331 330 332 325 309 211 242 272 323 290 248 144 167 186 176 201 192 168 194 209 243 244 253 273 297 311 307 309 314 277 314 348 343 313 204 228 131 159 196 204 190 189 186 190 191
330 329 329 327 227 153 222 141 263 269 211 132 175 147 168 231 174 144 203 212 222 255 256 278 306 304 302 301 296 295 14 313 305 295 25 338 110 136 167 194 196 195 194 196 199
332 325 310 253 331 235 67 346 204 219 172 123 125 114 173 222 123 171 198 220 238 196 244 112 300 298 284 298 301 14 11 329 308 265 253 112 261 101 153 180 194 203 199 205 202
333 322 285 185 230 302 298 242 236 229 92 150 142 181 180 200 161 134 187 228 307 253 234 266 288 280 282 290 276 275 235 236 224 260 191 56 290 98 94 122 178 193 208 209 208
331 322 202 280 49 134 298 219 225 67 146 157 177 189 218 163 151 177 189 202 226 219 209 215 207 200 235 246 209 233 252 230 203 196 54 78 236 53 84 106 107 173 197 207 213
329 312 192 277 46 308 217 236 256 85 116 117 198 190 212 166 185 191 196 221 219 262 276 265 154 176 106 300 333 323 321 318 277 343 108 164 122 86 74 103 127 116 136 171 196
316 180 196 104 235 228 245 244 101 101 67 210 157 199 187 188 268 203 218 229 215 208 271 226 130 126 51 345 295 116 240 19 292 180 262 94 113 132 128 119 116 117 119 103 98
308 244 88 40 166 227 252 341 130 359 308 218 244 280 190 186 206 207 176 148 212 216 271 87 272 121 114 232 109 303 359 233 203 268 289 132 214 111 140 130 128 103 100 94 90
247 229 97 328 249 232 254 83 244 53 281 264 312 172 96 155 227 205 165 126 205 166 218 285 262 129 234 28 343 234 215 217 313 312 307 239 139 114 145 135 119 120 110 90 83
295 228 56 287 227 247 236 358 36 276 202 231 278 290 298 168 166 215 202 37 137 168 194 50 309 287 1 87 342 318 320 273 281 163 318 313 92 127 126 131 119 114 107 92 80
331 318 111 275 239 211 159 220 280 271 192 218 223 263 182 189 229 259 119 86 168 216 190 163 243 289 168 172 178 254 49 305 277 283 229 298 99 120 145 148 109 127 119 111 107
292 260 146 119 331 304 245 205 217 172 243 317 279 236 201 210 215 202 177 126 143 197 331 238 275 299 326 3 5 217 232 313 292 272 245 241 46 144 167 161 144 141 135 118 115
350 59 15 359 120 327 285 328 243 219 189 294 194 251 234 229 215 215 205 152 165 150 213 267 267 286 326 285 281 302 290 274 272 299 293 296 235 285 168 69 98 177 163 146 132
338 336 332 298 285 272 154 168 278 297 292 161 300 319 247 241 313 253 237 222 200 180 215 217 259 241 268 234 255 272 274 266 266 270 273 268 268 283 70 189 160 188 174 154 128
12 307 288 131 267 256 273 333 339 316 152 360 4 306 225 75 325 303 291 304 284 222 212 237 237 236 267 285 284 265 252 253 257 256 252 257 263 116 149 140 124 145 148 130 124